This demonstration page uses our WeatherBlox Daily Observations layout. Learn more.

Left ArrowRight Arrow

Hourly Observations for July 24, 2015

Temp ( °F °C ) Dew Point ( °F °C ) Humidity (%) Winds ( mph kmh ) Pressure ( in mb ) Visibility ( mi km ) Precip ( " mm )
12:53 am 00:53 Clear 64 17.8 62 16.7 93 93 N N/A 30.01 1016 10 16 N/A
1:53 am 01:53 Clear 63 17.2 61 16.1 93 93 N N/A 30.01 1016 10 16 N/A
2:53 am 02:53 Clear 63 17.2 61 16.1 93 93 N N/A 30.01 1016 10 16 N/A
3:53 am 03:53 Clear 62 16.7 60 15.6 93 93 N N/A 30.01 1016 7 11 N/A
4:53 am 04:53 Clear 61 16.1 60 15.6 97 97 N N/A 30.01 1016 10 16 N/A
5:53 am 05:53 Clear 61 16.1 59 15 93 93 N N/A 30.03 1017 8 13 N/A
6:53 am 06:53 Sunny 60 15.6 59 15 96 96 N N/A 30.05 1018 7 11 N/A
7:53 am 07:53 Sunny 66 18.9 62 16.7 87 87 N N/A 30.06 1018 10 16 N/A
8:53 am 08:53 Sunny 72 22.2 64 17.8 76 76 N N/A 30.07 1018 10 16 N/A
9:53 am 09:53 Sunny 76 24.4 64 17.8 67 67 N N/A 30.06 1018 10 16 N/A
10:53 am 10:53 Sunny 80 26.7 63 17.2 56 56 ESE 5 7 30.06 1018 10 16 N/A
11:53 am 11:53 Sunny 82 27.8 57 13.9 42 42 E 5 7 30.06 1018 10 16 N/A
12:53 pm 12:53 Sunny 84 28.9 58 14.4 41 41 ENE 3 6 30.05 1018 10 16 N/A
1:53 pm 13:53 Sunny 84 28.9 58 14.4 41 41 ESE 7 11 30.04 1017 10 16 N/A
2:53 pm 14:53 Sunny 85 29.4 59 15 42 42 undefined N/A 30.02 1017 10 16 N/A
3:53 pm 15:53 Sunny 85 29.4 58 14.4 40 40 ESE 5 7 30.02 1017 10 16 N/A
4:53 pm 16:53 Sunny 86 30 58 14.4 39 39 N N/A 30.01 1016 10 16 N/A
5:53 pm 17:53 Sunny 86 30 58 14.4 39 39 NNE 3 6 29.99 1016 10 16 N/A
6:53 pm 18:53 Sunny 83 28.3 62 16.7 49 49 ESE 3 6 29.98 1015 10 16 N/A
7:53 pm 19:53 Sunny 79 26.1 64 17.8 60 60 ESE 3 6 29.97 1015 10 16 N/A
8:53 pm 20:53 Sunny 74 23.3 63 17.2 69 69 N N/A 29.98 1015 10 16 N/A
9:53 pm 21:53 Clear 70 21.1 62 16.7 76 76 N N/A 29.99 1016 8 13 N/A
10:53 pm 22:53 Clear 66 18.9 62 16.7 87 87 N N/A 30.00 1016 10 16 N/A
11:53 pm 23:53 Clear 64 17.8 62 16.7 93 93 N N/A 30.00 1016 10 16 N/A

Powered by AerisWeather